Regional Weather Roundup
Issued by NWS

Home | Current Version | Previous Version | Text Only | Print | Product List | Glossary On
Versions: 1 2 3 4 5 6 7 8 9 10 11 12 13 14 15 16 17 18 19 20 21 22 23 24 25 26 27 28 29 30 31 32 33 34 35 36 37 38 39 40 41 42 43 44 45 46 47 48 49 50
000
ASUS43 KDTX 100610
RWRMI
MICHIGAN HOURLY REGIONAL WEATHER ROUNDUP
NATIONAL WEATHER SERVICE DETROIT/PONTIAC MI
100 AM EST SAT DEC 10 2016

NOTE: "FAIR" INDICATES FEW OR NO CLOUDS BELOW 12,000 FEET WITH NO
SIGNIFICANT WEATHER AND/OR OBSTRUCTION TO VISIBILITY.

MIZ047>049-052>055-059>063-066>070-074>076-081>083-100700-
SOUTHEAST LOWER MICHIGAN

CITY           SKY/WX    TMP DP  RH WIND       PRES   REMARKS
ADRIAN         CLOUDY    23  19  85 W8        30.43F WCI  14
6HR MIN TEMP:  23; 6HR MAX TEMP:  25; 6HR PCP: TRACE;

ALMA           CLOUDY    24  15  69 W8        30.39S WCI  15
6HR MIN TEMP:  23; 6HR MAX TEMP:  25;

ANN ARBOR      CLOUDY    24  20  84 SW13      30.40S WCI  12
BAD AXE        CLOUDY    25  18  76 W9        30.35S WCI  15
CARO           CLOUDY    24  17  76 SW7       30.37S WCI  16
DETROIT CITY   CLOUDY    25  19  78 W8        30.40F WCI  16
6HR MIN TEMP:  25; 6HR MAX TEMP:  28; 6HR PCP: TRACE;

DETROIT        FLURRIES  25  20  81 W12       30.42S WCI  14
6HR MIN TEMP:  25; 6HR MAX TEMP:  28; 6HR PCP: TRACE;

FLINT          CLOUDY    24  17  74 W7        30.39S WCI  16
6HR MIN TEMP:  24; 6HR MAX TEMP:  26;

GROSSE ILE     CLOUDY    26  20  80 W13       30.40F WCI  15
6HR MIN TEMP:  26; 6HR MAX TEMP:  28;

HILLSDALE      FLURRIES  21  18  86 SW8       30.40S WCI  12
HOWELL         CLOUDY    23  19  84 W8        30.38F WCI  14
6HR MIN TEMP:  23; 6HR MAX TEMP:  25;


CITY           SKY/WX    TMP DP  RH WIND       PRES   REMARKS
JACKSON        LGT SNOW  22  17  81 W10       30.41S WCI  11
6HR MIN TEMP:  22; 6HR MAX TEMP:  24; 6HR PCP: TRACE;

LAMBERTVILLE   CLOUDY    27  20  75 W5        30.44S WCI  21
6HR MIN TEMP:  27; 6HR MAX TEMP:  29;

LANSING        CLOUDY    23  18  81 W9        30.40F WCI  13
6HR MIN TEMP:  23; 6HR MAX TEMP:  24; 6HR PCP: TRACE;

LAPEER         NOT AVBL
MASON          CLOUDY    22  20  92 W5        30.40F WCI  16
MONROE         CLOUDY    26  21  83 W15       30.41F WCI  13
6HR MIN TEMP:  26; 6HR MAX TEMP:  28;

MT. CLEMENS    CLOUDY    25  16  67 W12       30.37S WCI  15
6HR MIN TEMP:  25; 6HR MAX TEMP:  29;

PONTIAC        CLOUDY    23  16  74 W10       30.36F WCI  12
6HR MIN TEMP:  23; 6HR MAX TEMP:  25;

PORT HOPE        N/A     26  20  77 W13G18    30.31R WCI  15
6HR MIN TEMP:  26; 6HR MAX TEMP:  27; 6HR PCP:  0.18;

PORT HURON     CLOUDY    25  16  68 W5        30.37S WCI  19
TRI CITIES     CLOUDY    24  17  74 W12       30.38F WCI  13
6HR MIN TEMP:  24; 6HR MAX TEMP:  26;

MIDLAND        CLOUDY    25  15  67 W6        30.37F WCI  18
6HR MIN TEMP:  25; 6HR MAX TEMP:  28;

TROY           CLOUDY    26  15  63 W8        30.41S WCI  17
SAGINAW HB     CLOUDY    27  16  63 SW7       30.37F WCI  19
$$
MIZ043>046-050>051-056>058-064>065-071>073-077>080-100700-
SOUTHWEST LOWER MICHIGAN

CITY           SKY/WX    TMP DP  RH WIND       PRES   REMARKS
BATTLE CREEK   LGT SNOW  22  20  92 SW10      30.42S FOG     WCI  11
6HR MIN TEMP:  22; 6HR MAX TEMP:  24; 6HR PCP: TRACE;

BENTON HARBOR  CLOUDY    27  12  53 W9        30.46F WCI  18
6HR MIN TEMP:  27; 6HR MAX TEMP:  28; 6HR PCP: TRACE;

BIG RAPIDS     CLOUDY    22  16  78 W13       30.36F WCI  10
6HR MIN TEMP:  22; 6HR MAX TEMP:  23;

COLDWATER      CLOUDY    21  18  86 SW9       30.43S WCI  11
6HR MIN TEMP:  21; 6HR MAX TEMP:  25;

FREMONT        CLOUDY    23  12  63 W12       30.41S WCI  12
HOLLAND        FLURRIES  26  14  60 W10G18    30.43F WCI  16
6HR MIN TEMP:  26; 6HR MAX TEMP:  27; 6HR PCP: TRACE;

GRAND RAPIDS   CLOUDY    23  17  78 W7        30.42S WCI  15
6HR MIN TEMP:  22; 6HR MAX TEMP:  24; 6HR PCP:  0.01;

IONIA          FLURRIES  22  20  91 W6        30.40S WCI  14
6HR MIN TEMP:  22; 6HR MAX TEMP:  24;

KALAMAZOO      LGT SNOW  22  17  81 SW7       30.43S WCI  13
6HR MIN TEMP:  22; 6HR MAX TEMP:  25; 6HR PCP: TRACE;

LUDINGTON      CLOUDY    24  12  62 NW8G17    30.40S WCI  14
6HR MIN TEMP:  24; 6HR MAX TEMP:  26;

MARSHALL       LGT SNOW  22  19  91 SW7       30.41S WCI  13
6HR MIN TEMP:  21; 6HR MAX TEMP:  24;

MOUNT PLEASANT CLOUDY    24  16  73 W10G17    30.36F WCI  13
6HR MIN TEMP:  21; 6HR MAX TEMP:  25;

MUSKEGON       FLURRIES  25  14  63 NW13      30.43S WCI  14
6HR MIN TEMP:  25; 6HR MAX TEMP:  27; 6HR PCP: TRACE;

SOUTH HAVEN    FLURRIES  27  15  59 NW9       30.44F WCI  18
$$
MIZ016>042-100700-
NORTHERN LOWER MICHIGAN

CITY           SKY/WX    TMP DP  RH WIND       PRES   REMARKS
ALPENA         CLOUDY    22  18  85 CALM      30.32S
6HR MIN TEMP:  18; 6HR MAX TEMP:  22; 6HR PCP: TRACE;

BEAVER ISLAND  CLOUDY    22  15  75 NW13G22   30.33F WCI   9
6HR MIN TEMP:  22; 6HR MAX TEMP:  25;

BELLAIRE       LGT SNOW  23  22  96 CALM      30.34S
6HR MIN TEMP:  23; 6HR MAX TEMP:  25;

CADILLAC       LGT SNOW  20  17  87 W6        30.31S WCI  12
CHARLEVOIX     CLOUDY    26  16  66 NW16G22   30.35S WCI  13
FRANKFORT      FLURRIES  24  15  70 W15       30.38S WCI  11
GAYLORD        LGT SNOW  21  16  81 CALM      30.27F
6HR MIN TEMP:  20; 6HR MAX TEMP:  22; 6HR PCP:  0.02;

GRAYLING       LGT SNOW  21  19  90 W6        30.30F WCI  13
6HR MIN TEMP:  21; 6HR MAX TEMP:  24;

HARBOR SPRINGS LGT SNOW  21  19  91 CALM      30.31S
HOUGHTON LAKE  CLOUDY    20  16  84 W12G18    30.32S WCI   8
6HR MIN TEMP:  20; 6HR MAX TEMP:  23; 6HR PCP:  0.02;

MANISTEE       FLURRIES  23  12  62 W15       30.39S WCI  10
OSCODA         CLOUDY    25  19  80 MISG      30.32S
6HR MIN TEMP:  24; 6HR MAX TEMP:  27;

PELLSTON       LGT SNOW  21  16  81 NW3       30.31F
6HR MIN TEMP:  20; 6HR MAX TEMP:  23; 6HR PCP:  0.13;

ROGERS CITY    CLOUDY    21  18  86 W3        30.33R
TRAVERSE CITY  LGT SNOW  23  18  81 W12       30.34F WCI  12
6HR MIN TEMP:  19; 6HR MAX TEMP:  25; 6HR PCP: TRACE;

$$
MIZ007>008-015-100700-
EASTERN UPPER MICHIGAN

CITY           SKY/WX    TMP DP  RH WIND       PRES   REMARKS
KINROSS        CLOUDY    11   8  88 SE5       30.30F WCI   3
6HR MIN TEMP:  11; 6HR MAX TEMP:  16; 6HR PCP: TRACE;

MACKINAC ISLAN CLOUDY    21  17  85 NW7       30.30F WCI  12
NEWBERRY       CLOUDY    15  13  90 W12       30.30S WCI   2
6HR MIN TEMP:  12; 6HR MAX TEMP:  18;

S. S. MARIE    CLOUDY    18  15  88 SE3       30.30S
6HR MIN TEMP:  18; 6HR MAX TEMP:  19; 6HR PCP:  0.03;

MUNISING         N/A     10   4  76 SW6       30.34F WCI   0
6HR MIN TEMP:   9; 6HR MAX TEMP:  22;

$$
MIZ004>006-011>014-085-100700-
CENTRAL UPPER MICHIGAN

CITY           SKY/WX    TMP DP  RH WIND       PRES   REMARKS
MANISTIQUE     PTCLDY    13   7  76 W12       30.34F WCI  -1
6HR MIN TEMP:  13; 6HR MAX TEMP:  19;

ESCANABA       CLEAR     14   6  70 W8        30.38F WCI   3
6HR MIN TEMP:  14; 6HR MAX TEMP:  23; 6HR PCP: TRACE;

MENOMINEE      CLOUDY    19   8  62 W5        30.41F WCI  12
6HR MIN TEMP:  17; 6HR MAX TEMP:  22;

SAWYER-GWINN   CLEAR      9   3  78 W9        30.31S WCI  -5
6HR MIN TEMP:   9; 6HR MAX TEMP:  16;

$$
MIZ001>003-009>011-084-100700-
WESTERN UPPER MICHIGAN

CITY           SKY/WX    TMP DP  RH WIND       PRES   REMARKS
IRON MOUNTAIN  CLOUDY    14   4  64 NW9       30.34S WCI   2
6HR MIN TEMP:   9; 6HR MAX TEMP:  18;

HOUGHTON       CLOUDY    14   8  77 W15       30.29F WCI  -1
6HR MIN TEMP:  14; 6HR MAX TEMP:  17; 6HR PCP:  0.07;

COPPER HARBOR    N/A     19  16  88 W6        30.32S WCI  11
6HR MIN TEMP:  18; 6HR MAX TEMP:  23; 6HR PCP:  0.09;

IRONWOOD       FLURRIES   8   1  73 W13       30.39S WCI  -8
6HR MIN TEMP:   8; 6HR MAX TEMP:  12; 6HR PCP: TRACE;

$$

ABBREVIATIONS USED IN REMARKS
   TC - TEMPERATURE IN CELSIUS
  WCI - WIND CHILL INDEX
   HX - HEAT INDEX
  VSB - VISIBILITY




USA.gov is the U.S. government's official web portal to all federal, state and local government web resources and services.